楊-高彗星

325P/Yang-Gao (2015)

English version
Home page
Updated on March 23, 2019

---------------------------------------------------------------------

・ プロフィール

符号 325P/2015 J4
検出日 2015年5月11日
検出光度 19.1等
検出者 H. Sato (Tokyo, Japan)

・ 写真集

・ 軌道要素

Epoch 2015 Aug. 6.0 TT = JDT 2457240.5
T 2015 Aug. 15.13708 TT                                 MPCW
q   1.4310882            (2000.0)            P               Q
n   0.14910170     Peri.  343.56516     -0.47025220     +0.83675094
a   3.5222025      Node   257.62547     -0.77394253     -0.54376971
e   0.5936951      Incl.   16.69203     -0.42411770     +0.06451639
P   6.61
From 1097 observations 1951 May 28-2015 Sept. 6, mean residual 0".5.
     Nongravitational parameters A1 = +0.15, A2 = -0.0271.

・ 星図

・ 光度変化

        m1 = 13.5 + 5 logΔ + 15.0 log r

---------------------------------------------------------------------

軌道要素はM.P.E.C. 2019-F55に掲載されたものです。
星図はステラナビゲータ Ver.8 (アストロアーツ) で作成したものです。
光度グラフはComet for Windowsで作成したものです。

---------------------------------------------------------------------

Copyright(C) Seiichi Yoshida (comet@aerith.net). All rights reserved.